Location: Newark
(25.6108°S, 54.5803°W)
Time: 08:33:40
(UTC+00:00)

Tiros 1 - Pass Details

Date: 03 November 2020
Orbit: 630 x 664 km, 48.4° (Epoch: 29 November)

Event Time Altitude Azimuth Distance (km) Brightness Sun altitude
Rises 16:59:55 0° 265° (W) 2,973 10.9 64.9°
Reaches altitude 10° 17:03:29 10° 237° (WSW) 2,075 10.1 64.2°
Maximum altitude 17:05:46 13° 209° (SSW) 1,873 9.8 63.7°
Drops below altitude 10° 17:08:04 10° 180° (S) 2,090 9.8 63.2°
Sets 17:11:43 0° 152° (SSE) 3,013 10.4 62.4°
